Regional Weather Roundup
Issued by NWS Charleston, SC

Current Version | Previous Version | Text Only | Print | Product List | Glossary Off
Versions: 1 2 3 4 5 6 7 8 9 10 11 12 13 14 15 16 17 18 19 20 21 22 23 24 25 26 27 28 29 30 31 32 33 34 35 36 37 38 39 40 41 42 43 44 45 46 47 48 49 50
000 ASUS42 KCHS 230512 RWRCHS REGIONAL WEATHER ROUNDUP NATIONAL WEATHER SERVICE CHARLESTON SC 100 AM EDT SUN APR 23 2017 NOTE: "FAIR" INDICATES FEW OR NO CLOUDS BELOW 12,000 FEET WITH NO SIGNIFICANT WEATHER AND/OR OBSTRUCTIONS TO VISIBILITY. NOT ALL STATIONS ARE QUALITY CONTROLLED. USE DATA WITH CAUTION... ESPECIALLY DEWPOINT OBSERVATIONS. SCZ027-030-031-034>040-042>050-230600- ...SOUTHEAST SOUTH CAROLINA... CITY SKY/WX TMP DP RH WIND PRES REMARKS N CHARLESTON CLEAR 71 67 87 S8 29.90F WATERFRONT PRK N/A 73 70 90 SW6 29.89S JOHNS ISLAND FAIR 72 70 94 S7 29.91F PINOPOLIS N/A 70 66 88 VRB2 29.81F MONCKS CORNER FAIR 68 64 88 S6 29.90S SUMMERVILLE FAIR 68 64 88 S3 29.91F BEAUFORT MCAS CLEAR 73 70 90 S7 29.90F BEAUFORT ARPT FAIR 72 68 88 SW8G16 29.90F HILTON HEAD IS CLEAR 73 70 88 S12 29.92S WALTERBORO MOCLDY 68 64 88 S6 29.91S ALLENDALE FAIR 72 64 78 VRB3 29.88F ...SOUTHERN MIDLANDS AND PEE DEE... CITY SKY/WX TMP DP RH WIND PRES REMARKS GEORGETOWN FAIR 68 68 100 SW6 29.92S KINGSTREE FAIR 66 61 82 SE3 29.89F ORANGEBURG CLEAR 68 64 87 S6 29.88F BARNWELL FAIR 73 66 78 S6 29.88F AIKEN FAIR 68 59 73 S8 29.91S MANNING FAIR 70 64 83 SW23G35 29.89F COLUMBIA MOCLDY 74 64 71 S9 29.86F SUMTER PTCLDY 72 62 71 S10 29.85F FLORENCE CLEAR 70 63 78 SW9 29.88F MYRTLE BEACH CLEAR 71 66 84 SW10 29.91 N MYRTLE BEACH CLEAR 70 68 93 SW13 29.90S $$ GAZ063-065-086>088-099>101-113>116-118-119-134>141-150-230600- ...SOUTHEAST GEORGIA... CITY SKY/WX TMP DP RH WIND PRES REMARKS SAVANNAH ARPT PTCLDY 71 65 81 S8 29.91S HUNTER AAF CLEAR 72 72 100 S6 29.88F FORT STEWART CLEAR 66 63 88 CALM 29.88F FOG STATESBORO CLEAR 72 64 75 S6 29.89F SYLVANIA CLEAR 72 64 78 S3 29.90F CLAXTON FAIR 71 68 91 SE5 29.90S ...CSRA...CENTRAL AND FAR SOUTHEAST GEORGIA... CITY SKY/WX TMP DP RH WIND PRES REMARKS THOMSON CLEAR 63 59 88 CALM 29.92S AUGUSTA-BUSH MOCLDY 72 60 66 S6 29.86F AUGUSTA-DANIEL PTCLDY 73 55 53 S5 29.88S SWAINSBORO MOCLDY 70 63 78 S5 29.90S VIDALIA CLEAR 70 64 83 S5 29.89F EASTMAN FAIR 72 49 43 CALM 29.90F HAZLEHURST FAIR 72 65 80 S5 29.88F ALMA CLEAR 63 62 97 CALM 29.89F WAYCROSS CLEAR 72 69 90 S5 29.89F JESUP FAIR 70 63 78 S3 29.90F BAXLEY FAIR 68 68 100 CALM 29.89F BRUNSWICK MOCLDY 73 70 88 S7 29.92S SAINT SIMONS MOCLDY 74 69 85 S6 29.91S $$ SCZ027-028-034-036>038-045-046-048>050-GAZ119-141-230600- ...LAKE AND SUPPLEMENTAL COASTAL OBSERVATIONS... STATION/POSITION TIME TEMP WIND PRES WAVE SWELL AIR SEA DIR/SP/G HT/PER HT/PER/DIR (UTC) (F) (DEG/KT/KT) (MB) (FT/S) (FT/S/D) WINYAH BAY 0345 72 220/ 8 1013.0 LAKE MURRAY 0420 74 190/ 9/ 14 1010.8 ACE BASIN NERRS NOT AVBL FORT PULASKI 0448 73 74 210/ 6/ 10 1013.1S SAPELO ISLAND 0400 73 180/ 9 1013.0 $$ ANZ835-935-AMZ111-154-330-350-352-354-370-450-454-472-230600- ...C-MAN AND BUOY OBSERVATIONS... STATION/POSITION TIME TEMP WIND PRES WAVE SWELL AIR SEA DIR/SP/G HT/PER HT/PER/DIR (UTC) (F) (DEG/KT/KT) (MB) (FT/S) (FT/S/D) BUOY 41004 0450 75 73 200/ 12/ 16 1012.9F 3/ 5 2/100/11 BUOY 41008 0350 73 72 190/ 12/ 12 1012.9 3/12 2/130/12 FOLLY BEACH CMAN 0400 73 210/ 12/ 13 1013.8R CAPERS NEARSHORE 0408 73 72 230/ 12/ 16 1013.0R FRIPP NEARSHORE 0408 73 74 220/ 10/ 14 1012.7S STATION/POSITION TIME TEMP WIND PRES WAVE SWELL AIR SEA DIR/SP/G HT/PER HT/PER/DIR (UTC) (F) (DEG/KT/KT) (MB) (FT/S) (FT/S/D) 5E ST. MARYS GA 0430 72 N/A 3/ 4 2/110/11 FRYING PAN BUOY 0450 74 73 220/ 12/ 16 1013.0R 5/ 6 2/110/12 BUOY 41025 0450 69 75 350/ 4/ 10 1013.1R 6/ 6 5/210/ 6 CAPE LOOKOUT NC 0400 70 320/ 10/ 13 1012.7R BUOY 41002 0450 72 76 180/ 16/ 19 1015.2F 4/12 3/ 50/12 BUOY 41010 0450 75 77 150/ 16/ 17 1013.6F 5/13 3/ 60/13 ST AUGUSTINE FL 0500 73 75 200/ 8/ 12 1013.9R $$

USA.gov is the U.S. government's official web portal to all federal, state and local government web resources and services.